Weather History for Prescott, AZ

Change the Weather History Date:

Sunday, November 27, 2011

  Actual Average Record
Temperature  
Mean Temperature 46 °F 42 °F  
Max Temperature 64 °F 56 °F 74 °F (1954)
Min Temperature 28 °F 28 °F 14 °F (1994)
Degree Days  
Heating Degree Days 19    
Month to date heating degree days  
Since 1 July heating degree days  
Cooling Degree Days 0    
Month to date cooling degree days  
Year to date cooling degree days  
Moisture  
Dew Point 9 °F    
Average Humidity 30    
Maximum Humidity 51    
Minimum Humidity 8    
Precipitation  
Precipitation 0.00 in 0.04 in 0.79 in (2008)
Month to date precipitation 0.83  
Year to date precipitation 12.92  
Sea Level Pressure  
Sea Level Pressure 30.40 in    
Wind  
Wind Speed 5 mph (SSW)    
Max Wind Speed 9 mph    
Max Gust Speed -    
Visibility 10 miles    
Events      
T = Trace of Precipitation, MM = Missing Value Source: NWS Daily Summary

Daily Weather History Graph

Daily Weather History Graph

Search for Another Location

Airport:

Trip Planner

Search our weather history database for the weather conditions in past years. The results will help you decide how hot, cold, wet, or windy it might be!

Date:

Astronomy

Nov. 27, 2011 Rise Set
Actual Time 7:14 AM MST 5:19 PM MST
Civil Twilight 6:47 AM MST 5:47 PM MST
Nautical Twilight 6:16 AM MST 6:18 PM MST
Astronomical Twilight 5:45 AM MST 6:48 PM MST
Moon 9:41 AM MST (11/27) 8:02 PM MST (11/27)
Length of Visible Light 10h 59m
Length of Day
10h 04m
Waxing Crescent, 9% of the Moon is Illuminated
Nov 27
Waxing Crescent
Dec 2
First Quarter
Dec 10
Full
Dec 17
Last Quarter
Dec 24
New

Hourly Weather History & Observations

Time (MST) Temp. Windchill Dew Point Humidity Pressure Visibility Wind Dir Wind Speed Gust Speed Precip Events Conditions
12:53 AM 36.0 °F 31.1 °F 7.0 °F 30% 30.42 in 10.0 mi South 5.8 mph - N/A   Clear
1:53 AM 30.9 °F 27.5 °F 9.0 °F 40% 30.41 in 10.0 mi SSW 3.5 mph - N/A   Clear
2:53 AM 30.0 °F 24.1 °F 12.0 °F 47% 30.40 in 10.0 mi SSW 5.8 mph - N/A   Clear
3:53 AM 30.0 °F 24.1 °F 10.9 °F 45% 30.40 in 10.0 mi South 5.8 mph - N/A   Clear
4:53 AM 30.0 °F 21.7 °F 10.9 °F 45% 30.41 in 10.0 mi SSW 9.2 mph - N/A   Clear
5:53 AM 28.9 °F 25.2 °F 10.9 °F 47% 30.45 in 10.0 mi SSW 3.5 mph - N/A   Clear
6:53 AM 28.0 °F - 10.9 °F 49% 30.48 in 10.0 mi Calm Calm - N/A   Clear
7:53 AM 28.4 °F 24.6 °F 12.2 °F 51% 30.52 in 10.0 mi South 3.5 mph - N/A   Clear
8:53 AM 39.0 °F 36.8 °F 12.0 °F 33% 30.49 in 10.0 mi South 3.5 mph - N/A   Clear
9:53 AM 46.9 °F - 3.9 °F 17% 30.48 in 10.0 mi North 3.5 mph - N/A   Clear
10:53 AM 50.0 °F - 1.0 °F 13% 30.47 in 10.0 mi WNW 3.5 mph - N/A   Clear
11:53 AM 54.0 °F - 1.0 °F 12% 30.44 in 10.0 mi NW 4.6 mph - N/A   Clear
12:53 PM 57.9 °F - 3.0 °F 11% 30.38 in 10.0 mi Calm Calm - N/A   Clear
1:53 PM 61.0 °F - 3.9 °F 10% 30.37 in 10.0 mi NNW 3.5 mph - N/A   Clear
2:53 PM 64.0 °F - 3.9 °F 9% 30.34 in 10.0 mi NNW 4.6 mph - N/A   Clear
3:53 PM 64.0 °F - 1.9 °F 8% 30.33 in 10.0 mi NNE 3.5 mph - N/A   Clear
4:53 PM 62.1 °F - 3.9 °F 10% 30.32 in 10.0 mi Calm Calm - N/A   Clear
5:53 PM 51.1 °F - 12.0 °F 21% 30.37 in 10.0 mi Calm Calm - N/A   Clear
6:53 PM 43.0 °F 39.5 °F 16.0 °F 34% 30.40 in 10.0 mi South 5.8 mph - N/A   Clear
7:53 PM 42.1 °F 39.2 °F 17.1 °F 37% 30.40 in 10.0 mi SSW 4.6 mph - N/A   Clear
8:53 PM 41.0 °F 35.8 °F 15.1 °F 35% 30.38 in 10.0 mi SSW 8.1 mph - N/A   Clear
9:53 PM 39.0 °F 33.4 °F 16.0 °F 39% 30.35 in 10.0 mi SSW 8.1 mph - N/A   Clear
10:53 PM 37.9 °F 34.4 °F 14.0 °F 38% 30.35 in 10.0 mi South 4.6 mph - N/A   Clear
11:53 PM 37.9 °F 32.1 °F 14.0 °F 38% 30.33 in 10.0 mi SSW 8.1 mph - N/A   Clear